User: anonymous   Login
Location: Caltech
(34.1382°N, 118.1253°W)
Time: 12:00:18
(UTC-07:00)
Language:

ASTRO E2 - Orbit

View from above orbital plane
View from above orbital plane
View from above satellite
View from above satellite

Ground track
Ground track

The orbit data is extracted from the following two-line orbital elements,

1 28773U 05025A   16270.27408519  .00001992  00000-0  99293-4 0  9998
2 28773  31.3824 206.9877 0005041 221.8555 138.1707 15.15084814617285
Epoch (UTC): 26 September 2016 06:34:40
Eccentricity: 0.0005041
inclination: 31.3824°
perigee height: 517 km
apogee height: 524 km
right ascension of ascending node: 206.9877°
argument of perigee: 221.8555°
revolutions per day: 15.15084814
mean anomaly at epoch: 138.1707°
orbit number at epoch: 61728

The dashed part of the orbit path shows where the satellite is in the earth's shadow,  

DLR